sat.trackr.live / text

‹ back to catalog

STARLINK-11301 [DTC]

NORAD 61885 · 2024-204M

PAYLOAD ACTIVE UNKNOWN

§ Identity

Operator
Country
US
Launch date
2024-11-09
Launch site
AFWTR
Launch vehicle
Mass (kg)
RCS (m²)

Purposes: comms

External: N2YO · Heavens-Above · Gunter

§ Orbital elements

Epoch: 2026-09-21T19:53:54.616704Z

Period
91.74 min
Inclination
53.1593°
Eccentricity
0.0000890
Mean motion
15.69708027 rev/d
Perigee alt
359.1 km
Apogee alt
360.3 km
Semi-major
6,737.9 km
B*
1.8658e-6
RAAN
109.1356°
Arg perigee
115.6433°
Mean anomaly
244.4677°
Rev number
10,772

§ Raw data

STARLINK-11301 [DTC]1 61885U 24204M   26264.82910436 -.00000362  00000+0  18658-5 0  99972 61885  53.1593 109.1356 0000890 115.6433 244.4677 15.69708027107727

JSON: /api/v1/satellites/61885 · /tle

For live sub-satellite position, see the globe view (requires WebGL).

§ Visibility from observer

Set your observer location to see the next 7 days of passes ≥ 10°. The values pass through the URL so the page stays shareable.

No JS? Fill the form by hand. The geolocation button needs JavaScript.